TITAN 3C TRANSTAGE DEB, 26525

Orbit data source: Space-Track

TITAN 3C TRANSTAGE DEB, 26525 is space debris in HEO originally from a launch on Tue, 21 Dec 1965 UTC launched from the Air Force Eastern Test Range (AFETR). Debris objects in space refer to the collection of defunct objects orbiting the Earth. Examples of debris include non-operational satellites, rocket bodies, and fragments generated from explosions, collisions, or faulty payload assembly.

Loading next visibility...
Identifier
26525, 1965-108AL
Orbit
HEO
Country
Flag of USUS
Related business
Manufacturer
Unknown
Mission
Spacecraft
Bus & Motor
Unknown
Mass
Unknown
Launch date (UTC)
1965-12-21 (60 years ago)
Launch vehicle
Unknown
Launch site
Air Force Eastern Test Range (AFETR)
Object type
Payload
Rocket body
Debris
Shape & HBR
Unknown shape, 0.3 m
Radar Cross Section
Medium (>0.1 m² and <1 m²)

Expand to show TLE details & history
Last TLE update: 14 hours ago

TLE from 14 hours ago
0 TITAN 3C TRANSTAGE DEB
1 26525U 65108AL  26104.58093215 -.00000043  00000-0  28449-3 0  9994
2 26525  26.1954 189.5056 6684287 340.2571   6.9041  2.83283703268929
Epoch: 2026-04-14T13:56Z
TLE epoch observation values (Epoch: 2026-04-14T13:56:32.537Z)
Latitude
9.99536°
Longitude
158.41933°
Altitude
1,440.702 km
Speed
9.114 km/s
True Right ascension
14h 01m 14s
True Declination
9° 56' 31"
Sunlit
Object was in full shadow at epoch
Visualization orbit readout
Latitude
Unknown
Longitude
Unknown
Altitude
Unknown
Speed
Unknown
Apparent Right ascension
Unknown
Apparent Declination
Unknown
Sunlit
N/A
Visualization observer readout
Local Sidereal Time
10:29:13
Azimuth
Unknown
Elevation
Unknown
Doppler factor
Unknown
Orbital elements
Apogee altitude
28,829.424 km
Perigee altitude
618.756 km
Semi-major axis
21,102.227 km
Eccentricity
0.66843
Inclination
26.1954°
RAAN
189.5056°
Arg. of periapsis
340.2571°
True anomaly
43.17624°
Mean anomaly
6.9041°
Eccentric anomaly
20.00763°
Mean motion
0.70803 °/min
Orbital period
508.45 mins
BSTAR
0.00028449
Loading maneuver chart data...
Computing Atmospheric mass density...

Documentation

Showing up to 5 results
|